TimeMDT,TemperatureF,Dew PointF,Humidity,Sea Level PressureIn,VisibilityMPH,Wind Direction,Wind SpeedMPH,Gust SpeedMPH,PrecipitationIn,Events,Conditions,WindDirDegrees,DateUTC
12:24 AM,32.0,26.6,80,30.40,10.0,NW,11.5,-,N/A,,Scattered Clouds,320,2012-10-04 06:24:00
12:53 AM,30.9,25.0,79,30.40,10.0,NW,8.1,-,N/A,,Clear,320,2012-10-04 06:53:00
1:35 AM,32.0,26.6,80,30.40,10.0,NW,10.4,-,N/A,,Mostly Cloudy,310,2012-10-04 07:35:00
1:53 AM,32.0,25.0,75,30.40,10.0,NNW,16.1,21.9,N/A,,Mostly Cloudy,330,2012-10-04 07:53:00
2:09 AM,32.0,24.8,75,30.39,10.0,NNW,13.8,-,N/A,,Scattered Clouds,330,2012-10-04 08:09:00
2:53 AM,30.9,23.0,72,30.42,10.0,NW,10.4,-,N/A,,Partly Cloudy,320,2012-10-04 08:53:00
3:53 AM,26.1,21.9,84,30.46,10.0,WNW,4.6,-,N/A,,Partly Cloudy,290,2012-10-04 09:53:00
4:24 AM,26.6,21.2,80,30.39,10.0,NW,3.5,-,N/A,,Mostly Cloudy,310,2012-10-04 10:24:00
4:53 AM,28.0,24.1,85,30.45,10.0,West,3.5,-,N/A,,Overcast,260,2012-10-04 10:53:00
5:53 AM,30.0,24.1,79,30.45,10.0,WNW,3.5,-,N/A,,Overcast,290,2012-10-04 11:53:00
6:53 AM,30.9,23.0,72,30.45,10.0,NNW,4.6,-,N/A,,Overcast,330,2012-10-04 12:53:00
7:53 AM,32.0,23.0,69,30.44,10.0,WNW,4.6,-,N/A,,Overcast,300,2012-10-04 13:53:00
8:53 AM,33.1,23.0,66,30.44,10.0,NNE,6.9,-,N/A,,Overcast,20,2012-10-04 14:53:00
9:53 AM,35.1,23.0,61,30.43,10.0,North,8.1,-,N/A,,Overcast,350,2012-10-04 15:53:00
10:53 AM,35.1,23.0,61,30.42,10.0,Calm,Calm,-,N/A,,Mostly Cloudy,0,2012-10-04 16:53:00
11:53 AM,37.9,21.9,53,30.40,10.0,Calm,Calm,-,N/A,,Scattered Clouds,0,2012-10-04 17:53:00
12:53 PM,42.1,21.9,45,30.36,10.0,Variable,3.5,-,N/A,,Clear,0,2012-10-04 18:53:00
1:53 PM,44.1,21.0,40,30.32,10.0,NE,4.6,-,N/A,,Clear,50,2012-10-04 19:53:00
2:53 PM,46.0,17.1,31,30.29,10.0,Variable,3.5,-,N/A,,Clear,0,2012-10-04 20:53:00
3:53 PM,46.0,19.0,34,30.30,10.0,SSE,4.6,-,N/A,,Clear,150,2012-10-04 21:53:00
4:53 PM,45.0,18.0,34,30.28,10.0,ESE,9.2,-,N/A,,Clear,110,2012-10-04 22:53:00
5:53 PM,44.1,18.0,35,30.29,10.0,SE,8.1,-,N/A,,Clear,130,2012-10-04 23:53:00
6:53 PM,41.0,17.1,38,30.31,10.0,ESE,6.9,-,N/A,,Clear,120,2012-10-05 00:53:00
7:53 PM,39.9,18.0,41,30.31,10.0,ESE,8.1,-,N/A,,Clear,120,2012-10-05 01:53:00
8:53 PM,41.0,19.0,41,30.29,10.0,East,9.2,-,N/A,,Clear,100,2012-10-05 02:53:00
9:53 PM,39.9,19.0,43,30.28,10.0,East,8.1,-,N/A,,Clear,100,2012-10-05 03:53:00
10:53 PM,39.9,18.0,41,30.27,10.0,East,10.4,-,N/A,,Mostly Cloudy,100,2012-10-05 04:53:00
11:53 PM,37.0,19.0,48,30.28,10.0,East,13.8,-,N/A,,Overcast,100,2012-10-05 05:53:00